Overview Statistics Trail Chart Weather Telemetry Raw packets
 

This is the latest recevied weather packets stored in our database for station/object EA1GGY-1. If no packets are shown the sender has not sent any weather packets the latest 10 day(s).

<< 1 2 3 4 5 6 7 >>
Time Temp. Humidity Pressure Rain* Wind** Luminosity Snow
1788565337 19.44° C 55% 1022.3 hPa - - - -
1788564736 19.44° C 57% 1022.2 hPa - - - -
1788564135 19.44° C 56% 1022.1 hPa - - - -
1788563535 19.44° C 56% 1022.1 hPa - - - -
1788562934 18.89° C 58% 1022 hPa - - - -
1788562333 19.44° C 58% 1022 hPa - - - -
1788561732 19.44° C 58% 1022.1 hPa - - - -
1788561131 20.56° C 54% 1022 hPa - - - -
1788560531 19.44° C 57% 1022.1 hPa - - - -
1788559930 20° C 56% 1022.1 hPa - - - -
1788559329 20° C 56% 1022.2 hPa - - - -
1788558728 20° C 57% 1022.2 hPa - - - -
1788558127 20° C 57% 1022.3 hPa - - - -
1788557527 20° C 57% 1022.3 hPa - - - -
1788556926 21.11° C 53% 1022.4 hPa - - - -
1788556324 20.56° C 55% 1022.4 hPa - - - -
1788555724 20.56° C 56% 1022.4 hPa - - - -
1788555123 20.56° C 56% 1022.4 hPa - - - -
1788554522 21.11° C 54% 1022.4 hPa - - - -
1788553921 20.56° C 57% 1022.3 hPa - - - -
1788553320 21.11° C 55% 1022.3 hPa - - - -
1788552720 21.11° C 55% 1022.2 hPa - - - -
1788552119 21.11° C 54% 1022 hPa - - - -
1788551518 21.67° C 55% 1021.9 hPa - - - -
1788550917 22.22° C 53% 1021.6 hPa - - - -

* Rain since midnight (hover to see other rain measurements)
** Current wind speed in m/s (hover to see current wind gust speed)